Retour au catalogue

STARLINK-37695

ActifCommunicationsVLEO
NORAD 69824·PAYLOAD·🇺🇸 United States

Lancé Jul 5, 2026 depuis Cape Canaveral Space Force Station

Loading…

Prochains Passages (prochaines 24 heures)

TLE

FraisSource: CelesTrak SupGP

Époque: Sep 14, 2026, 15:26 UTC

1 69824C 26154F   26257.64354167 -.00021664  00000+0 -64031-3 0  2579
2 69824  53.1596 359.3944 0001155  71.9492 330.6013 15.34390020    15

Suivez STARLINK-37695 en temps réel avec AllMySat

Download on the App Store